Theta_e
310 313 313 314 315 315 314 313 313 314 312 311 312 312 312 312 312 312 312 311 309 308 310 310 311 311 311 311 311 311 311 311 311 311 311 312 312 312 312 313 314 312 312 313 312 312 311 309 308 307 307 306 306 306 305 305 306 306 307 308 307 307 307 307 307 308 309 311 311 311 311 311 311 311 311 311 311 311 312 313 313 313 312 310 308 306
309 313 315 314 315 314 313 312 311 312 311 311 312 312 313 313 313 312 312 312 309 308 310 310 310 311 311 311 311 311 311 311 311 312 312 312 312 313 313 314 313 312 312 313 313 313 312 310 307 306 306 305 306 306 305 305 305 306 306 307 307 307 306 306 306 306 308 309 310 310 310 310 309 309 309 308 308 309 310 310 311 311 310 309 308 306
311 313 314 313 313 311 309 309 309 310 311 311 312 312 313 313 313 312 311 310 308 308 310 311 310 310 310 311 311 311 311 311 311 312 312 312 313 313 313 312 311 312 313 313 312 312 312 310 308 307 306 305 305 305 305 304 304 305 305 306 306 307 306 306 306 305 306 307 308 308 308 308 308 307 307 307 307 307 307 307 307 308 308 307 307 306
315 314 313 313 312 310 309 308 308 309 310 311 312 313 313 313 314 313 311 309 307 308 310 310 310 311 312 312 312 312 311 311 312 311 312 313 313 313 312 311 310 311 313 313 312 311 311 311 309 308 307 305 304 305 305 304 304 304 305 305 306 306 306 305 305 305 305 305 306 306 306 306 306 305 305 305 305 305 305 305 305 305 305 305 305 304
316 312 309 311 311 310 311 310 309 311 312 313 313 313 313 313 313 312 311 310 309 310 309 309 312 313 314 315 314 313 311 311 312 312 312 313 312 312 311 310 311 312 312 312 311 310 310 310 310 309 307 306 305 305 304 303 303 303 304 304 305 305 305 305 304 304 304 304 304 304 304 304 304 304 303 303 303 303 303 303 303 303 303 303 303 302
314 310 308 310 310 309 311 311 311 312 312 314 314 313 312 312 312 312 313 311 311 313 310 310 314 315 314 315 315 314 314 314 315 314 313 313 312 311 311 311 311 312 311 310 310 309 309 309 309 308 307 306 305 303 302 302 302 302 303 303 304 304 304 304 304 304 304 304 304 303 303 303 303 303 303 302 302 302 302 302 302 302 302 302 302 301
311 308 308 311 312 311 311 310 311 312 312 313 315 314 311 311 312 312 313 312 312 314 310 309 313 315 314 314 314 315 314 315 316 315 314 313 311 310 311 311 311 311 311 311 309 308 307 307 307 306 305 305 303 301 301 302 302 302 302 302 303 303 304 303 303 303 303 303 304 303 303 303 303 303 303 302 302 302 301 301 301 300 301 301 301 300
310 309 309 310 312 312 311 311 312 311 311 314 316 315 313 311 312 312 312 311 312 312 311 310 311 314 315 314 313 314 314 315 316 316 316 313 310 310 310 310 310 310 309 309 308 306 306 306 305 305 304 303 302 300 300 300 301 301 301 301 302 302 303 303 302 302 302 303 303 303 303 303 304 304 304 303 301 301 300 300 300 299 299 299 299 298
309 311 311 310 311 311 312 313 314 312 311 313 312 310 310 310 311 311 311 311 310 310 312 312 312 314 316 314 312 312 313 315 316 315 315 312 310 309 309 309 308 308 307 306 306 305 304 304 304 303 303 302 301 300 300 299 300 300 301 301 301 301 302 302 302 302 302 302 303 303 303 303 303 303 304 303 302 301 300 299 299 298 298 298 297 298
309 308 309 311 312 312 312 311 311 312 312 311 309 309 310 310 309 310 311 311 310 312 315 314 312 316 318 316 313 313 313 316 317 314 312 309 309 309 309 307 306 306 306 305 304 303 303 302 302 301 301 300 300 299 299 299 299 299 299 300 300 301 301 301 301 301 301 301 302 303 303 303 303 303 303 303 302 301 300 299 299 298 298 297 297 296
307 304 305 309 311 310 310 307 306 311 312 309 309 311 312 310 309 309 309 310 312 316 317 314 313 316 317 317 315 315 313 313 314 313 311 308 307 308 307 305 304 303 303 303 302 301 301 300 300 300 299 299 299 298 298 298 298 298 298 299 300 300 299 299 300 300 301 301 301 302 302 303 303 303 303 302 302 301 300 299 299 298 298 297 296 296
308 306 307 310 310 309 309 308 306 307 308 309 310 311 312 312 311 310 310 310 315 320 316 313 313 315 317 317 314 314 313 311 311 312 312 309 306 306 305 303 302 301 301 300 299 299 298 298 298 298 298 298 298 297 298 297 297 297 297 298 299 298 298 298 298 299 300 300 301 301 301 302 302 302 302 302 302 301 300 300 299 299 298 297 296 296
312 311 310 310 308 308 310 311 308 307 307 308 309 310 312 315 316 317 316 314 317 319 312 309 312 314 316 316 313 314 315 312 310 310 309 307 305 304 303 302 301 299 299 298 297 297 296 297 297 297 297 297 297 297 297 297 297 297 297 297 297 297 297 297 297 298 298 299 300 300 300 301 301 301 301 301 301 301 300 299 299 299 298 297 296 296
317 316 311 310 309 308 309 310 311 311 309 309 310 311 315 318 321 323 321 318 319 318 310 307 311 313 315 315 314 314 314 310 307 307 306 305 304 302 301 300 299 298 297 297 296 296 295 296 296 296 296 296 296 296 296 296 296 296 296 296 296 296 295 296 296 296 297 298 298 299 299 299 300 300 300 300 300 300 300 299 299 299 298 298 297 297
319 321 314 313 313 310 309 311 316 317 311 310 312 313 315 319 323 324 324 322 323 322 313 309 313 316 316 315 312 312 311 307 305 305 304 303 302 301 300 298 298 297 296 296 295 295 295 295 295 295 295 295 295 295 295 295 295 295 296 295 295 295 295 295 295 296 296 296 297 297 298 298 298 299 299 299 299 299 299 298 298 298 298 298 297 297
318 322 318 314 312 309 310 314 318 319 315 312 311 312 313 318 323 322 321 323 322 321 318 314 315 316 315 314 312 311 309 306 305 304 302 302 300 299 298 297 296 296 295 295 295 294 294 294 294 294 294 294 294 294 294 294 294 295 295 295 295 295 294 294 294 294 295 295 296 296 296 297 297 297 298 298 298 298 298 298 297 297 297 297 297 297
320 323 320 313 308 308 311 312 314 318 317 312 310 313 314 317 320 319 319 321 319 319 320 318 318 317 316 317 314 312 310 306 305 303 301 300 299 298 297 296 295 294 294 294 294 293 293 293 293 293 293 293 293 293 293 293 293 294 294 294 294 294 294 294 293 294 294 294 294 294 295 296 296 296 297 297 297 297 297 297 297 297 297 297 296 296
321 322 320 315 312 311 308 308 312 315 314 311 312 316 315 314 315 314 316 319 319 320 321 320 320 320 320 319 314 311 312 308 305 301 299 298 297 297 296 294 294 293 293 293 293 293 293 293 292 292 292 292 292 292 292 292 292 292 293 293 293 293 293 293 293 293 293 293 293 293 294 294 295 295 296 296 296 296 296 296 296 296 296 296 296 296
319 321 321 319 318 313 305 306 311 312 310 311 312 313 313 315 315 314 315 318 320 322 321 320 320 319 320 320 315 313 313 310 305 301 298 296 296 295 295 294 293 293 293 292 292 292 292 292 292 292 292 291 291 291 291 291 291 291 291 291 291 292 292 292 292 292 292 292 292 292 293 293 293 293 294 294 295 295 296 296 296 296 295 295 295 295
316 319 321 318 315 312 308 309 313 312 310 308 309 310 310 313 315 315 315 317 320 321 322 322 322 321 319 318 315 313 310 307 304 300 297 296 295 294 294 293 293 292 292 292 292 291 291 291 291 291 291 291 291 291 291 291 290 290 290 290 290 290 291 291 291 291 290 291 291 291 292 292 292 292 292 292 293 294 295 295 295 295 295 295 295 294
313 316 319 317 314 313 313 312 313 314 313 309 309 311 310 311 314 315 314 316 318 319 321 323 322 322 318 313 311 309 305 303 302 299 297 296 295 294 293 293 293 292 292 292 291 291 291 291 291 290 290 290 290 290 290 290 290 290 290 289 290 290 290 290 290 290 290 290 290 290 290 291 291 291 291 291 292 292 293 293 294 294 294 294 294 294
313 314 315 317 316 315 316 315 313 314 315 313 312 312 312 314 315 315 316 317 317 317 319 320 320 323 317 309 306 304 302 301 299 298 297 295 295 294 293 293 292 292 292 292 291 291 291 291 291 290 290 290 290 290 290 290 290 290 290 290 290 290 290 290 290 289 289 289 289 289 289 289 290 290 291 291 291 291 291 292 292 293 293 293 293 293
310 311 313 315 316 316 317 316 313 312 313 315 316 315 318 319 316 316 318 319 318 318 318 319 320 320 312 304 302 300 299 299 297 297 296 295 294 294 293 293 292 292 292 291 291 292 292 292 291 291 291 291 291 291 291 291 291 290 290 290 290 290 290 289 289 289 289 289 289 289 289 288 288 289 289 290 290 290 291 291 291 291 292 292 292 292
309 311 314 315 315 316 317 314 312 312 312 315 316 315 318 319 317 317 316 316 317 319 319 319 321 320 309 300 299 298 297 296 296 296 296 294 293 293 293 293 292 292 292 292 292 292 292 292 292 291 291 291 291 291 291 291 290 290 290 290 290 289 289 288 288 288 288 289 289 288 288 288 287 288 288 288 289 289 290 291 291 291 291 291 292 292
312 314 315 316 317 317 317 316 314 313 313 313 314 313 314 315 315 315 313 312 314 317 319 318 320 321 310 300 298 298 297 296 295 294 294 294 293 293 292 292 292 292 292 291 292 292 292 292 292 292 291 291 291 290 290 290 290 290 290 289 289 289 288 288 287 287 288 288 288 288 287 287 287 287 287 287 287 287 288 289 290 291 291 290 290 291
312 313 314 315 317 317 317 317 316 314 312 311 312 312 312 311 312 313 313 314 315 316 317 316 317 317 310 302 300 300 297 296 294 293 293 292 292 292 292 292 292 292 291 291 291 291 292 292 292 291 291 291 290 290 290 290 290 290 289 289 288 288 288 288 287 287 287 287 288 287 287 286 286 286 286 286 286 286 287 287 288 289 290 290 290 290
310 311 313 314 315 314 315 315 312 310 310 311 312 312 311 310 309 309 311 313 314 313 314 313 313 314 311 308 308 306 300 296 294 293 293 292 292 291 291 291 291 291 291 291 291 291 291 291 291 291 291 290 290 289 289 289 289 289 289 289 288 288 287 288 287 287 287 287 288 288 287 286 286 286 286 286 286 286 286 286 286 287 288 289 290 290
309 310 311 312 312 312 313 311 309 307 307 308 309 309 309 308 307 307 308 309 309 310 311 310 310 311 309 308 309 307 301 297 295 294 293 293 292 292 291 291 291 291 291 291 291 291 291 291 291 291 291 291 290 290 289 289 289 289 289 288 288 288 287 287 287 287 287 287 288 288 287 286 285 285 285 285 285 285 285 285 286 286 286 287 288 289
307 308 308 310 310 309 308 307 306 304 305 305 305 305 305 304 305 305 305 305 305 307 307 307 307 307 306 306 306 302 297 295 294 293 293 293 292 292 292 292 291 291 291 291 291 291 291 291 291 291 291 291 290 290 290 289 289 289 288 288 288 287 287 287 287 287 288 287 288 288 287 286 286 285 285 285 285 285 285 285 285 285 286 286 286 287
306 306 306 306 306 306 305 304 304 304 303 303 302 303 302 302 302 302 302 302 302 303 303 303 303 303 303 304 301 296 293 293 293 292 293 293 292 293 292 292 292 291 290 290 290 291 291 291 291 291 291 291 290 290 290 289 289 289 289 288 288 287 287 286 286 287 288 287 287 287 287 287 286 285 284 284 284 284 284 284 284 285 285 285 285 286
305 305 304 303 303 304 303 303 303 302 302 301 301 301 300 300 300 300 300 300 300 301 301 300 301 302 300 298 296 294 293 292 292 292 292 292 292 292 292 293 293 292 291 290 290 291 291 291 291 292 291 291 290 290 289 289 289 289 289 288 288 288 287 287 287 287 287 287 287 287 287 287 287 286 285 284 284 284 284 284 284 284 284 284 284 285
302 302 302 302 303 303 302 302 301 299 299 299 299 299 298 299 299 299 300 300 300 300 300 300 301 301 298 294 293 293 292 291 291 291 291 291 292 292 292 292 293 293 292 291 290 290 291 291 291 292 291 291 290 290 289 289 289 289 288 288 288 287 286 286 286 286 286 286 286 286 287 287 286 286 285 285 284 284 284 284 284 284 284 284 284 284
300 301 301 301 302 302 302 300 297 297 297 298 298 298 298 298 298 298 299 299 299 299 299 299 299 298 296 294 292 292 292 291 291 291 291 291 291 291 291 292 292 292 292 291 290 290 290 291 291 292 292 291 291 290 289 289 288 288 288 288 287 287 286 286 286 286 285 285 285 285 286 286 286 285 285 285 284 283 283 283 284 284 284 284 283 283
299 300 299 300 301 301 299 297 295 296 298 298 298 297 297 297 297 297 297 297 298 298 297 297 296 294 294 294 291 290 290 290 290 290 291 291 291 291 292 292 292 292 292 292 291 290 290 291 291 291 291 291 291 290 289 288 288 288 288 287 287 287 286 286 286 285 285 284 284 284 284 285 285 284 284 284 284 283 283 283 284 284 284 284 284 283
297 297 297 298 298 297 296 295 295 297 297 296 296 296 296 297 297 296 296 297 297 297 297 296 294 293 293 292 290 290 290 290 291 291 291 291 291 292 291 292 292 292 292 292 291 290 290 291 291 291 291 291 290 290 289 288 288 287 287 287 287 286 286 286 285 285 285 284 284 283 283 283 283 283 283 283 283 283 283 283 284 284 284 285 284 284
296 295 295 295 295 295 294 295 296 297 295 294 294 295 295 295 296 296 296 296 296 296 297 297 294 292 292 291 290 291 291 291 291 292 292 292 292 292 292 291 291 291 292 292 292 291 291 291 291 290 290 290 290 289 289 288 287 287 286 286 286 286 285 285 285 285 284 284 284 283 283 283 283 283 282 282 281 281 281 282 283 283 284 284 284 284
295 295 294 294 295 295 294 295 295 294 294 294 294 294 294 294 295 295 295 295 295 295 295 295 294 292 291 291 290 291 291 291 291 291 291 292 292 292 292 291 291 292 292 292 292 291 291 290 290 290 290 290 289 289 288 287 286 286 285 285 285 285 285 284 284 284 284 284 284 283 283 283 282 282 282 281 281 280 280 281 282 282 283 283 283 283
294 295 294 294 295 294 293 294 295 294 294 294 293 293 293 292 293 294 294 294 294 294 292 291 291 291 290 289 290 291 291 290 290 290 291 291 291 291 290 290 291 291 291 292 292 291 290 290 290 289 289 288 288 287 286 285 284 284 284 284 284 284 284 284 284 284 284 283 283 283 283 282 282 281 281 280 280 279 279 280 281 281 281 281 282 282
293 294 294 294 295 295 294 295 295 294 294 294 294 293 292 291 292 293 293 292 292 291 290 290 289 289 290 289 289 290 290 289 289 290 290 290 290 289 289 289 290 290 290 290 290 290 289 288 287 286 286 286 285 285 284 283 283 283 283 283 283 283 283 283 283 283 283 283 282 282 282 281 281 280 280 279 279 278 278 278 279 279 279 280 281 281
292 294 295 295 295 295 294 295 295 294 294 294 294 293 291 291 292 292 292 292 291 289 289 291 291 290 289 289 289 289 289 289 289 290 290 290 289 289 289 288 289 289 289 289 288 287 286 285 284 284 283 283 283 283 282 282 281 281 282 282 282 282 282 282 282 282 281 281 281 281 280 280 279 279 278 278 277 277 277 277 277 278 278 278 279 279
290 291 292 293 294 294 294 295 294 294 294 295 295 293 291 290 291 292 292 291 289 289 289 291 291 289 288 289 289 289 289 289 289 289 289 289 289 288 289 288 288 288 287 286 285 284 283 282 282 282 282 281 281 281 281 280 280 280 280 280 280 280 280 280 280 280 279 279 279 279 278 278 278 277 277 276 276 276 276 276 276 276 276 276 276 277
288 289 289 290 292 293 293 294 294 293 293 293 293 291 290 291 292 292 291 289 288 289 289 289 289 288 288 288 288 288 289 289 289 288 288 288 287 287 287 287 286 285 284 283 283 282 281 281 280 280 280 280 280 279 279 278 278 278 278 278 278 278 278 278 277 277 277 277 277 276 276 276 276 275 275 275 274 274 274 274 274 274 274 274 275 275
290 290 289 290 291 291 291 292 292 292 292 292 291 290 290 291 292 291 289 289 289 290 289 288 288 288 288 288 288 288 288 287 287 287 287 286 286 286 285 284 283 283 282 281 281 280 280 279 279 279 278 278 277 277 276 276 275 275 275 275 275 275 275 275 275 275 275 274 274 274 274 274 274 274 273 273 273 273 273 272 272 272 273 273 273 274
290 290 289 289 290 290 290 291 292 291 291 290 290 290 291 291 291 290 289 289 290 289 289 289 288 288 287 286 286 286 286 286 286 286 285 284 284 283 282 282 281 281 280 280 279 279 277 277 276 276 275 275 275 274 274 273 273 273 273 273 273 273 273 272 272 272 271 271 271 272 272 272 272 272 272 271 271 271 271 271 271 271 271 272 273 274
290 290 290 289 290 290 290 290 291 290 290 289 289 290 290 290 290 290 289 289 289 289 288 288 287 286 284 284 285 285 285 285 284 283 282 282 281 281 280 280 280 279 279 278 277 276 275 274 273 273 273 272 272 272 271 271 271 270 270 270 270 269 269 268 268 268 268 268 268 269 269 269 269 270 270 270 270 270 270 270 270 270 270 271 272 273
290 290 289 289 290 290 290 290 290 290 290 290 290 290 290 290 290 289 289 289 288 287 286 285 285 284 282 282 282 283 283 283 281 281 280 280 279 279 279 279 278 277 277 276 275 273 272 271 271 271 270 270 269 269 268 267 267 267 266 266 266 265 265 265 265 265 265 265 265 266 266 267 267 267 267 268 268 268 268 268 269 269 269 270 271 272
289 289 288 289 289 289 289 289 290 289 290 290 290 290 290 289 289 288 288 287 286 284 282 282 281 281 280 280 280 281 281 280 279 278 278 278 277 277 277 277 276 275 274 273 272 271 270 269 269 268 267 267 266 266 265 264 264 264 263 263 263 263 262 262 262 262 263 263 263 263 264 264 265 265 266 266 266 267 267 267 268 268 269 269 270 271
289 288 288 289 289 289 289 289 289 289 289 289 289 289 289 289 288 286 284 283 282 280 279 279 279 279 278 278 278 278 278 277 277 276 276 276 276 275 275 274 274 273 272 271 270 268 267 266 266 265 265 264 264 263 263 263 262 262 262 262 261 261 261 261 261 261 261 261 262 262 262 263 263 264 264 265 265 266 266 266 267 267 268 268 269 270
289 288 288 288 288 289 289 289 289 289 289 289 289 289 288 288 286 284 280 279 279 278 277 277 277 277 277 276 276 276 275 275 275 275 274 274 273 273 273 272 271 270 269 268 267 266 265 264 263 263 263 262 262 262 262 262 262 261 261 261 261 261 261 261 261 261 261 261 261 261 262 262 262 263 263 263 264 264 265 265 265 266 267 267 268 269
288 288 288 288 288 289 288 289 289 288 288 289 289 288 285 283 282 281 279 278 277 277 276 275 275 275 275 275 274 274 273 273 273 272 272 271 271 271 270 269 268 267 266 266 265 264 263 262 262 262 262 262 262 262 261 261 261 261 261 261 260 260 260 260 260 260 261 261 261 261 261 261 262 262 262 262 263 263 263 264 264 265 266 266 267 268
289 289 289 288 289 289 289 289 289 289 288 289 287 284 280 278 279 280 279 277 276 275 274 273 273 273 273 273 272 272 271 271 271 270 269 269 269 269 268 267 266 265 264 264 263 262 262 262 261 261 261 261 261 261 261 261 260 260 260 260 260 260 260 260 260 260 260 261 261 261 261 261 261 261 262 262 262 262 263 263 263 264 265 266 266 267
Wind_Speed
3 6 7 8 11 13 14 15 17 13 6 5 5 8 10 10 11 12 14 9 1 7 11 13 19 19 17 17 13 15 17 19 23 21 16 14 13 13 15 10 4 4 3 4 9 11 10 11 12 13 13 14 14 15 14 15 18 21 22 23 25 27 29 28 27 27 27 24 22 23 25 27 28 32 36 38 41 43 45 48 50 50 50 49 49 48
3 8 9 14 14 8 6 8 9 9 8 9 8 9 10 9 12 12 13 11 1 4 9 10 18 19 16 19 17 18 19 20 21 19 16 16 16 14 9 4 5 5 4 6 8 7 6 9 12 13 13 12 11 10 11 12 14 16 18 20 22 23 25 27 26 26 27 25 24 23 21 21 20 24 30 30 33 39 41 43 46 47 48 48 48 48
5 9 12 15 9 2 2 1 2 7 10 11 8 8 9 7 11 11 9 8 1 2 8 11 16 16 16 22 21 18 17 17 17 16 17 19 17 10 5 7 6 5 5 6 6 6 7 11 15 16 15 15 13 11 10 11 12 13 15 17 19 20 24 26 27 28 28 26 27 25 21 20 18 19 25 27 28 33 37 38 40 43 44 45 47 47
5 6 11 14 6 2 5 2 2 7 7 9 8 8 8 6 8 8 4 1 1 5 9 13 15 13 14 16 12 10 10 12 14 16 18 15 8 4 7 6 4 3 3 5 6 7 10 12 15 15 15 17 18 15 13 11 11 10 12 14 16 18 21 24 26 29 29 26 28 28 26 25 21 19 23 27 29 31 33 35 37 40 42 43 45 46
8 1 1 7 6 8 11 6 5 8 8 9 9 8 11 11 11 11 6 4 7 7 5 10 12 8 5 3 1 1 3 7 12 15 12 3 7 7 6 2 2 2 3 5 8 9 11 12 14 15 16 19 18 17 17 15 11 9 8 10 12 14 17 21 24 27 28 26 24 24 24 23 20 20 20 22 24 26 29 32 35 38 40 41 43 44
9 2 3 3 4 7 9 7 8 9 9 8 7 10 15 15 14 15 11 7 8 5 1 7 9 3 1 1 5 7 4 9 12 9 3 8 11 6 4 1 1 3 4 5 8 9 10 12 14 16 19 20 19 20 22 20 15 12 8 7 8 10 12 17 20 23 25 24 21 18 19 18 17 18 18 19 20 22 27 31 33 36 40 42 43 44
4 1 1 2 3 4 5 7 10 10 8 8 4 8 13 13 12 12 9 5 5 4 1 3 6 6 4 4 6 8 8 14 14 6 2 7 8 5 3 3 4 6 6 7 10 11 12 13 14 16 20 20 20 24 27 24 21 18 13 9 7 6 9 13 17 20 22 21 20 20 21 19 18 17 16 16 18 20 24 27 30 33 36 40 42 43
3 1 1 2 4 4 5 8 8 10 8 5 1 2 5 7 8 6 5 5 4 5 2 4 5 8 7 3 4 5 9 15 13 6 4 9 10 5 5 6 7 8 9 9 11 12 13 14 14 16 19 20 22 28 31 28 26 24 20 15 10 6 6 10 13 17 20 19 18 20 21 19 19 19 15 14 17 18 19 23 27 29 31 35 38 40
2 2 3 6 5 5 8 6 5 11 8 2 4 2 0 1 3 3 4 5 3 5 4 5 5 6 7 2 2 4 8 11 7 7 9 12 10 4 6 10 10 11 12 11 10 12 14 15 17 19 21 23 25 29 31 30 29 27 24 21 16 9 6 8 10 13 17 19 18 18 18 18 18 17 14 13 15 16 17 21 24 25 27 31 35 38
1 1 3 6 6 6 5 1 1 8 5 1 4 3 3 2 1 2 3 3 2 5 5 6 8 6 8 2 3 2 3 5 5 8 12 13 9 5 8 12 13 12 11 11 12 13 15 18 21 23 26 27 28 30 33 34 32 29 27 24 19 14 10 8 8 9 13 16 18 16 16 17 16 15 13 12 12 12 14 17 19 21 23 26 31 36
1 1 1 4 4 2 2 5 3 1 0 1 2 1 0 2 1 1 2 1 3 7 4 10 13 8 6 1 3 0 1 2 3 6 11 11 8 7 10 12 12 11 10 10 11 13 16 20 23 25 26 28 29 32 34 36 34 32 30 25 20 17 14 11 9 7 9 12 15 15 14 16 16 13 12 12 12 11 12 14 15 17 19 22 27 31
2 3 3 2 1 1 4 3 2 2 1 1 1 2 3 2 1 2 1 1 5 6 1 5 7 9 8 2 2 3 3 2 2 3 7 8 8 9 10 11 10 9 10 10 10 12 15 18 21 23 24 24 26 29 30 31 31 30 30 27 21 20 19 15 13 10 8 9 11 13 14 14 14 13 13 14 14 12 13 14 13 13 16 20 24 28
3 5 3 1 1 4 4 3 2 3 3 3 2 2 4 3 2 3 2 2 5 4 1 2 1 5 9 5 5 10 6 3 3 4 6 9 10 11 11 11 10 10 11 11 11 12 12 14 17 19 21 22 23 25 26 27 27 26 27 26 22 21 22 20 17 14 10 9 10 11 12 12 12 12 13 15 14 13 13 13 13 14 16 18 22 27
3 1 3 3 2 5 8 6 3 3 5 6 4 4 3 4 4 5 3 3 5 2 3 2 0 4 7 4 8 12 4 9 9 8 11 14 13 11 11 10 10 11 12 12 11 12 12 13 16 18 19 20 22 24 25 26 27 25 25 25 23 23 25 24 21 18 14 11 11 11 11 11 11 11 12 13 14 13 13 13 14 15 17 19 24 28
5 4 4 6 2 7 10 7 2 3 4 5 2 1 3 4 4 6 5 5 8 5 0 2 2 4 3 1 1 1 8 12 11 13 14 14 11 9 9 10 10 12 12 11 11 13 13 15 17 18 18 20 21 22 23 24 24 23 23 24 24 25 27 29 26 21 17 14 13 12 12 12 11 12 12 13 13 13 13 13 14 16 18 22 26 29
6 7 4 2 2 9 10 5 4 4 1 1 1 1 3 3 3 4 7 6 6 7 4 4 3 4 2 3 4 3 11 13 13 14 13 12 11 10 10 11 11 11 11 11 11 12 13 15 16 16 17 19 20 21 21 21 21 22 22 23 24 25 28 31 29 24 21 18 15 14 14 13 12 12 13 13 13 13 13 15 16 18 20 23 25 27
4 5 4 4 1 6 5 2 4 2 1 2 2 4 3 2 3 4 6 2 1 6 6 4 6 7 5 6 4 7 12 13 13 13 12 12 12 11 10 9 9 9 10 10 10 10 11 13 14 15 16 17 18 19 19 19 18 18 18 19 22 26 30 32 30 27 25 23 20 18 16 15 14 13 14 14 15 15 14 16 18 18 19 22 25 27
4 6 2 6 5 3 2 2 1 1 0 3 3 3 1 1 1 2 3 0 2 7 6 5 11 10 6 4 3 9 9 10 11 9 10 10 9 10 9 8 9 9 8 9 9 9 10 12 13 14 15 16 17 17 17 17 16 17 18 20 22 25 27 28 28 28 27 27 26 23 19 17 15 14 14 14 15 16 15 16 18 18 19 22 25 27
2 6 3 6 7 2 4 1 3 2 1 1 2 1 0 2 3 3 3 2 4 7 4 6 12 10 7 6 4 5 4 8 8 6 9 9 8 8 7 7 8 7 7 7 7 7 7 10 13 15 16 16 17 17 17 18 21 25 28 29 29 26 24 24 26 28 29 30 29 26 23 20 17 15 13 13 14 16 16 16 16 18 21 24 25 27
1 5 4 1 1 2 4 3 5 5 3 1 1 1 0 2 4 3 2 2 4 7 6 6 8 6 4 3 3 5 6 6 5 6 8 8 7 6 5 5 5 4 4 4 4 5 5 8 11 12 13 14 15 16 17 18 23 28 31 31 30 29 27 26 25 26 29 30 30 29 29 27 25 21 18 16 14 14 16 16 16 17 21 24 25 27
1 5 6 0 2 1 4 5 6 8 6 4 5 5 4 2 1 2 2 2 3 5 6 6 6 4 0 2 5 7 6 5 6 7 6 5 6 5 5 5 4 4 4 4 3 4 4 4 6 6 8 9 11 13 15 16 18 21 24 26 26 26 27 27 26 26 27 26 26 28 30 31 31 28 26 22 18 15 16 16 16 18 21 24 25 27
1 3 5 3 2 5 5 3 4 6 4 3 4 5 5 4 2 4 5 3 3 4 4 5 6 2 2 3 5 7 5 6 6 6 6 6 6 6 5 5 4 4 4 4 4 3 3 3 3 3 5 6 7 8 10 11 12 14 16 18 18 18 17 18 20 23 26 25 24 25 27 29 30 30 30 27 22 18 17 17 17 18 20 22 24 26
0 1 4 5 6 8 5 2 1 2 2 1 2 2 2 1 2 6 7 3 3 4 4 6 7 2 1 3 5 7 5 6 6 6 6 5 4 5 4 4 4 3 3 3 3 3 3 4 5 5 6 7 7 9 10 10 10 11 12 12 13 15 16 17 19 21 23 23 22 22 22 24 26 27 28 29 27 25 23 20 18 17 17 19 20 22
2 2 4 5 6 8 5 3 3 2 1 1 3 3 3 4 4 6 5 3 3 5 4 6 6 2 1 0 5 7 6 6 5 3 5 5 3 3 2 3 3 3 4 4 3 3 4 5 6 7 8 9 10 12 13 13 14 14 15 15 17 18 20 23 23 23 22 19 18 19 20 22 24 25 27 28 28 28 28 26 23 19 17 17 18 19
2 2 2 4 5 5 5 3 1 1 1 1 2 1 2 4 5 6 4 2 4 6 7 8 7 1 3 4 5 7 7 6 4 3 3 3 3 2 2 2 2 2 3 5 5 5 6 6 7 8 10 11 12 13 14 14 15 16 16 17 18 19 20 21 22 22 21 19 19 21 24 26 27 28 28 28 27 28 28 27 26 24 20 17 17 19
2 1 1 4 6 5 5 5 2 1 1 2 2 3 3 3 3 5 4 5 5 5 7 8 6 2 2 5 6 7 8 7 5 3 2 2 2 1 1 2 2 2 3 4 5 5 6 6 7 9 10 10 10 11 11 12 12 13 14 15 16 18 18 19 20 20 20 20 21 22 24 26 27 28 28 27 27 27 27 26 26 25 24 21 18 17
2 2 4 6 8 8 8 7 2 1 1 4 4 4 5 2 2 4 4 5 4 3 5 7 6 6 4 5 8 5 7 7 6 5 3 2 1 0 1 2 2 2 3 3 3 4 4 5 6 7 8 9 9 9 9 10 11 11 13 13 14 16 17 18 19 19 19 19 17 17 19 22 23 23 24 24 25 26 27 27 27 26 25 23 21 19
2 4 6 9 11 10 10 7 2 0 3 5 5 7 9 7 6 7 8 7 6 6 7 6 7 9 9 11 14 7 3 6 5 5 4 4 3 3 3 4 5 4 4 4 4 4 4 4 5 6 7 8 9 9 9 10 11 12 14 15 16 17 18 18 18 17 16 16 14 13 16 19 21 22 22 23 24 25 26 27 27 27 26 25 23 21
3 6 7 8 10 9 7 6 4 3 5 6 6 9 11 13 13 12 12 12 10 10 10 10 12 15 15 15 12 4 4 3 3 2 2 3 4 5 5 6 6 5 5 5 5 5 5 5 5 6 8 8 9 10 11 11 12 14 17 19 20 21 21 21 19 17 14 14 13 13 15 17 20 22 23 24 25 25 26 27 27 27 27 26 25 24
2 5 4 4 8 8 7 9 7 6 7 9 10 12 13 16 18 15 14 15 15 15 15 16 20 21 16 8 1 5 4 1 1 1 3 4 5 6 7 7 7 6 6 6 6 6 6 6 7 8 9 9 10 12 12 12 13 14 16 17 18 20 22 23 22 18 16 15 15 15 16 17 17 20 23 24 24 25 26 27 27 27 26 26 26 26
3 3 1 0 5 7 8 10 10 8 9 11 12 13 16 18 18 16 16 15 15 16 18 19 22 18 7 3 5 3 2 1 1 3 4 5 6 6 7 8 8 8 7 7 7 7 7 7 7 8 9 10 11 12 12 13 14 15 16 16 17 18 21 22 22 19 17 17 16 17 17 16 17 19 21 23 24 25 26 27 27 27 26 26 26 26
3 3 1 2 5 6 7 10 10 8 9 12 14 17 19 18 16 15 14 12 12 13 14 15 14 8 1 4 2 1 2 2 4 5 4 4 5 6 7 9 9 9 9 8 8 8 8 8 8 9 10 11 11 11 12 12 13 14 16 17 19 22 25 26 25 22 21 20 19 18 17 16 16 18 20 22 23 25 26 26 27 27 27 27 27 27
3 3 3 4 5 6 9 8 5 5 9 11 11 13 16 17 17 16 14 14 15 13 10 9 6 1 4 4 1 0 2 4 6 5 5 5 5 6 7 9 10 10 10 9 9 8 8 8 9 10 11 12 12 12 12 12 12 13 14 16 19 22 25 26 26 25 26 28 27 24 20 17 18 20 19 19 23 26 27 27 27 27 27 28 29 29
5 5 5 5 6 7 7 3 2 6 11 8 1 1 6 9 11 12 12 13 12 6 2 1 1 3 5 4 1 2 3 5 7 7 6 5 5 7 8 9 10 10 11 10 9 9 8 9 10 11 12 13 14 15 14 13 13 14 15 15 17 18 20 21 23 25 26 29 30 28 25 24 24 25 23 21 21 23 24 25 26 26 26 26 27 29
7 7 6 5 6 6 2 2 6 11 8 3 2 1 1 3 6 9 13 13 7 2 3 3 5 5 5 3 1 4 5 7 7 7 7 7 6 7 9 10 11 11 11 10 10 10 9 10 11 12 13 14 15 15 14 14 14 14 15 15 16 17 18 20 22 25 25 27 29 30 28 28 28 29 29 27 24 23 23 23 24 24 23 21 22 24
8 6 4 3 4 3 1 5 10 6 3 6 7 2 2 2 5 8 10 8 4 5 5 5 6 6 4 1 3 5 6 6 6 7 8 8 8 8 10 11 12 12 11 11 11 11 11 12 13 13 15 15 15 15 14 14 13 14 15 17 17 19 21 21 22 23 24 25 27 28 27 28 29 31 33 32 30 30 28 24 24 24 22 21 22 22
9 6 3 4 4 3 5 9 8 6 7 8 7 2 2 1 3 3 4 3 3 5 5 5 6 5 2 4 7 6 3 4 6 7 8 8 8 8 9 10 13 14 14 15 17 17 17 18 18 17 17 16 15 15 13 12 13 14 16 19 20 22 23 22 21 21 21 22 22 23 23 24 27 30 33 34 34 35 33 27 25 24 22 21 23 23
11 9 7 6 5 3 4 6 7 7 6 2 0 1 1 1 2 1 3 3 3 5 4 4 4 2 4 7 9 5 1 3 7 8 8 7 6 6 7 10 13 15 17 20 21 20 19 19 17 17 17 16 16 15 13 14 17 18 19 20 21 20 21 22 21 21 22 22 21 21 21 22 25 29 31 33 34 36 35 31 29 27 24 23 24 25
8 9 8 7 6 5 6 7 7 7 3 2 2 2 2 2 1 1 4 4 1 3 3 3 1 4 5 6 8 5 3 6 8 7 8 9 6 5 6 9 13 16 18 20 18 16 15 16 17 18 17 17 17 18 18 19 21 21 20 21 20 19 20 21 22 22 23 23 23 22 22 24 28 29 29 31 32 32 32 31 31 30 27 24 24 25
4 5 6 7 7 8 9 8 7 6 3 1 4 3 2 3 3 2 7 4 2 4 4 4 4 6 6 7 7 5 5 7 8 8 10 11 8 6 8 10 13 15 17 16 15 14 15 16 17 18 19 19 21 21 22 22 22 22 23 22 22 22 22 23 23 23 23 24 24 23 25 28 30 29 29 31 31 31 30 29 28 27 27 27 26 26
2 1 3 6 8 10 10 8 7 5 2 3 5 3 4 4 1 5 7 1 4 6 5 5 7 8 8 8 6 5 6 8 9 11 11 10 9 10 12 12 12 13 14 13 13 13 15 16 17 19 21 23 23 23 22 22 23 23 24 23 23 25 25 24 25 25 24 25 26 27 30 32 32 32 32 31 31 30 30 28 27 27 27 28 28 28
2 1 2 4 5 7 8 7 7 6 3 5 5 1 5 3 4 5 3 2 4 7 6 7 10 10 9 9 7 7 8 10 10 11 10 10 11 11 11 10 11 13 14 14 14 13 13 16 18 20 22 24 23 22 22 24 25 25 25 25 26 27 27 27 28 28 27 28 30 32 33 33 33 33 33 33 32 30 30 30 29 29 29 28 28 31
3 2 3 4 3 3 4 5 6 5 3 5 4 2 4 6 3 1 1 2 4 6 6 7 8 7 7 8 8 9 9 10 10 9 8 9 10 9 9 10 10 12 14 16 16 16 16 17 19 20 22 23 23 22 22 25 26 26 26 27 28 30 30 30 30 30 30 32 34 35 35 34 34 35 34 34 33 30 30 32 30 29 29 28 28 30
3 4 4 4 3 3 5 5 5 3 2 5 5 3 4 4 2 2 4 5 5 5 4 4 5 3 3 5 7 8 8 8 8 7 7 8 9 8 9 10 11 12 14 15 16 17 17 18 20 22 25 26 24 22 22 24 25 26 27 28 29 30 30 30 31 32 32 33 35 35 35 35 35 35 34 33 31 28 29 30 29 28 28 27 26 26
6 7 6 4 3 4 6 5 2 1 3 4 5 5 6 7 6 5 5 7 7 5 3 4 5 2 1 3 6 7 6 6 6 6 7 8 9 9 10 11 12 13 14 14 15 16 17 19 21 24 27 28 26 23 23 23 23 25 28 29 29 30 30 32 36 37 35 35 35 35 35 37 37 35 34 33 30 28 29 30 28 27 27 26 26 26
6 4 1 2 4 4 7 8 4 5 8 8 8 8 7 8 9 7 6 7 5 1 0 1 3 1 1 2 4 5 5 5 6 7 8 8 9 10 10 12 13 13 13 14 16 17 18 20 21 22 25 29 27 24 24 25 24 25 28 29 29 30 31 33 36 37 37 36 36 35 36 37 37 36 33 32 31 30 31 31 29 29 28 28 27 27
6 5 3 5 6 5 7 10 8 9 12 11 10 9 7 8 7 4 4 4 1 2 2 1 1 1 1 1 3 5 5 5 6 8 8 7 9 9 10 11 13 14 14 15 16 18 19 19 21 22 25 28 28 26 26 27 26 25 27 28 29 30 32 33 34 35 36 36 35 35 35 34 35 35 33 32 31 30 31 30 29 29 29 28 28 27
4 5 5 7 9 8 10 13 11 11 12 10 9 9 8 8 5 2 1 0 2 3 2 2 1 1 1 2 4 5 5 5 6 8 8 7 8 8 9 11 14 15 16 16 16 17 19 19 21 23 24 26 27 27 27 28 28 28 30 31 32 32 34 34 33 33 35 35 34 34 33 32 33 33 32 31 30 29 29 29 28 28 29 29 28 27
3 4 4 5 8 9 11 13 13 12 12 11 12 11 8 5 3 3 4 3 3 3 2 2 1 1 1 3 4 4 6 6 6 8 9 8 8 8 10 13 15 16 17 18 17 17 18 19 21 23 25 26 27 27 28 30 30 31 32 34 34 34 34 35 34 34 34 34 33 33 31 30 31 30 30 30 30 29 29 29 28 29 31 32 30 29
4 6 5 4 6 8 10 12 11 8 10 12 10 7 3 1 3 5 4 3 3 2 1 1 1 1 1 2 3 4 6 6 6 8 9 8 8 10 12 14 15 16 16 18 18 18 18 19 21 24 27 28 28 28 30 31 32 33 34 34 34 33 33 33 33 33 32 31 30 30 30 31 31 30 30 30 30 30 31 31 31 32 34 35 34 34
8 11 9 7 9 11 13 14 9 7 10 10 3 3 4 3 3 4 4 3 3 2 1 0 1 1 2 2 3 4 6 6 7 9 8 8 10 12 12 13 15 17 18 18 18 19 20 21 23 26 29 30 29 29 31 32 34 37 39 36 33 31 31 31 31 31 30 29 29 30 31 31 32 32 31 31 30 31 31 32 32 32 34 36 37 37
Wind_Direction
187 198 193 212 224 225 216 213 228 246 293 321 295 276 274 277 273 269 273 272 260 278 272 267 275 282 283 278 270 271 275 272 270 271 274 277 278 274 272 284 337 3 348 313 284 285 295 309 319 316 309 299 287 278 267 256 251 249 243 238 237 235 229 223 220 219 216 212 212 215 218 221 223 223 225 226 226 227 227 226 226 225 225 224 224 223
201 218 212 223 232 240 235 230 245 265 287 277 267 276 271 268 273 271 276 283 283 269 273 270 279 284 285 282 273 262 262 264 268 276 284 282 276 272 282 335 29 11 325 288 288 307 325 340 354 353 347 336 318 303 290 274 263 255 246 240 237 235 229 224 221 219 218 215 214 216 218 220 220 222 224 224 226 228 228 227 226 225 225 224 223 223
213 227 228 232 237 18 2 335 273 255 260 263 259 269 270 270 282 276 264 276 307 265 285 294 290 289 282 274 270 264 259 260 267 272 272 270 269 281 356 31 14 344 314 312 331 353 4 12 17 17 13 6 359 347 326 305 286 267 252 244 237 233 232 229 226 225 223 221 221 221 221 223 221 224 227 226 228 230 228 228 228 227 226 225 224 223
225 230 234 238 233 219 247 214 220 255 253 247 245 258 268 269 279 274 246 270 3 266 288 303 293 285 273 262 264 271 257 256 263 257 255 261 276 338 36 31 347 331 320 347 11 17 18 22 25 25 22 19 18 14 0 342 317 289 265 254 242 235 235 233 231 230 227 225 226 226 226 229 227 230 233 232 232 232 231 230 229 228 227 226 225 224
242 124 208 241 220 219 239 224 218 255 256 237 229 246 265 264 262 267 278 329 310 270 283 311 296 285 271 234 82 351 235 256 258 248 254 315 55 61 66 63 286 332 357 15 21 18 16 17 24 27 24 21 22 17 8 2 346 321 295 273 255 242 238 237 236 234 230 227 227 226 227 231 233 235 235 233 231 230 230 230 229 229 228 227 227 226
254 98 102 222 198 209 230 229 221 233 258 258 217 222 250 264 268 273 290 322 308 272 59 342 315 302 173 105 356 338 303 274 258 240 285 44 63 73 83 90 348 17 22 33 24 18 17 14 21 29 26 22 18 14 14 14 10 357 340 309 275 253 243 241 240 236 230 225 222 218 217 220 224 229 228 226 224 224 228 229 229 231 230 229 228 227
261 121 110 219 175 173 204 241 231 216 250 272 215 213 242 259 267 273 290 301 290 290 44 4 308 287 262 245 289 298 270 263 259 249 28 61 66 64 72 61 57 54 43 42 34 27 25 18 18 27 30 25 16 15 19 21 19 15 9 355 318 272 249 247 243 236 229 222 218 216 216 216 218 223 227 225 225 226 229 229 229 231 231 230 228 227
199 160 90 156 167 167 202 244 223 189 226 267 121 201 238 251 257 256 271 260 272 316 301 192 229 271 284 251 236 248 244 258 271 300 18 75 80 76 82 66 52 46 33 30 32 30 28 21 17 25 32 30 22 21 24 24 23 20 16 11 355 319 274 261 252 238 230 223 218 220 221 222 224 227 230 229 228 228 228 229 230 231 231 230 229 228
143 191 185 168 175 200 217 242 185 174 210 285 70 57 135 229 256 221 245 257 275 317 281 185 184 259 284 244 194 246 249 263 297 7 40 69 76 68 76 65 46 37 29 22 26 31 32 25 19 25 31 30 25 25 26 26 26 26 21 18 10 353 321 287 270 248 238 232 225 225 226 229 233 234 236 236 232 228 228 231 231 231 231 232 230 229
105 206 212 183 198 224 219 336 85 181 209 43 101 89 82 93 76 173 251 276 274 280 261 171 174 254 292 240 166 255 270 293 347 50 69 79 75 42 51 55 44 38 32 25 27 31 32 28 25 26 29 27 24 25 28 29 29 29 26 21 14 6 353 326 299 266 251 243 235 233 233 235 239 239 239 239 236 230 229 230 228 227 229 231 231 229
129 104 252 212 220 248 101 61 27 166 91 61 137 81 54 170 117 171 250 302 270 269 230 173 184 219 284 303 135 253 313 320 359 59 76 86 77 44 44 48 42 40 39 33 30 30 29 29 29 29 29 26 23 25 29 31 30 30 29 24 16 11 6 355 337 302 271 256 246 243 242 242 244 244 244 244 242 236 230 229 227 224 225 229 232 231
174 185 219 215 187 106 105 102 69 98 103 197 203 316 287 243 212 205 175 150 251 266 194 160 190 211 238 252 62 338 309 254 258 22 53 77 72 49 48 49 42 40 42 38 31 28 26 25 26 29 30 28 25 25 25 27 29 30 28 25 18 16 16 12 2 340 305 279 263 256 255 256 255 252 252 252 250 243 235 233 230 223 224 228 231 231
216 204 200 161 182 178 172 172 129 130 166 196 206 259 275 283 270 237 223 209 244 264 56 35 344 229 243 262 279 282 305 27 33 22 55 75 69 53 51 48 41 37 36 35 30 28 28 24 22 24 28 28 27 26 23 23 26 27 27 25 20 18 21 24 18 3 337 309 289 274 268 268 268 264 260 257 254 250 244 239 234 229 229 229 230 231
267 222 154 174 209 185 187 198 205 187 177 186 199 201 232 276 284 273 274 268 267 295 64 47 334 251 262 266 255 262 317 47 56 66 72 72 67 60 54 48 44 42 36 31 27 28 30 27 21 22 25 28 27 25 23 23 24 26 27 25 22 21 25 29 26 16 360 336 314 298 284 276 274 272 270 266 261 256 249 242 238 236 236 236 238 239
263 286 183 180 157 157 189 213 195 113 151 189 196 182 245 263 270 277 276 271 281 294 135 149 182 243 255 60 245 293 53 57 67 75 74 73 72 68 57 45 40 41 38 33 30 29 29 27 25 24 24 26 27 26 25 22 21 23 25 24 25 25 27 30 28 19 8 354 336 319 302 286 276 269 268 269 267 263 255 247 243 242 242 244 245 246
244 263 186 148 99 158 184 204 132 110 135 208 97 129 255 229 187 251 261 260 292 297 254 194 218 250 257 296 267 116 79 73 72 68 67 66 60 55 46 36 31 32 32 33 34 31 27 27 27 27 26 25 25 26 27 24 22 22 23 23 26 27 30 33 31 23 14 5 352 339 325 307 291 278 271 267 265 264 261 256 252 249 249 251 251 251
249 261 144 89 296 187 181 160 155 186 220 145 163 203 217 152 159 231 258 261 324 280 263 227 251 262 265 281 265 119 98 84 72 60 58 53 47 50 45 32 29 30 30 30 33 30 26 25 25 27 28 27 25 25 25 24 23 24 25 26 29 31 33 33 31 28 23 18 10 357 343 328 314 300 289 280 273 267 263 263 263 259 255 256 257 255
255 274 178 148 213 222 49 39 189 282 169 141 186 207 153 62 126 217 251 202 208 252 262 256 264 270 266 267 107 109 102 86 79 71 67 58 51 56 50 36 32 28 27 28 29 26 24 22 22 24 26 26 26 25 24 22 23 27 29 31 33 33 33 31 31 30 28 27 24 16 4 347 329 314 302 294 287 279 270 268 268 266 263 263 264 262
247 270 249 177 206 174 83 227 229 199 177 185 258 235 107 251 229 188 203 217 223 243 251 242 258 269 258 240 163 126 87 73 82 79 68 60 56 58 54 47 38 28 25 27 25 21 19 18 19 22 22 21 21 21 20 20 25 31 34 34 35 34 32 30 31 33 33 33 31 26 20 10 356 340 326 315 304 293 282 276 274 272 272 271 270 268
176 257 269 128 205 104 115 202 216 196 162 90 278 270 69 257 252 212 181 194 224 247 252 235 244 254 253 244 164 110 70 64 71 69 63 58 62 64 61 55 43 37 35 27 24 19 15 17 18 20 19 19 22 23 22 22 28 33 35 36 36 35 34 32 31 32 33 35 33 31 29 26 21 12 2 352 335 313 298 292 285 281 280 278 275 272
176 244 249 315 30 200 192 199 205 206 199 185 210 220 207 204 260 266 231 189 214 245 248 236 236 233 17 56 104 98 76 70 71 74 73 64 66 64 55 51 37 32 28 13 16 11 359 2 4 12 22 27 32 31 29 29 30 32 33 34 35 34 33 32 31 30 31 32 31 30 30 29 27 24 21 15 2 341 325 315 307 300 295 288 281 277
269 258 254 253 245 234 225 194 206 217 205 198 209 212 217 202 188 245 237 195 204 238 236 245 248 221 44 40 101 110 104 103 97 95 87 65 59 57 47 41 32 26 23 10 3 359 352 345 334 342 8 17 22 23 22 24 25 26 27 28 30 30 28 28 28 28 29 30 28 27 28 28 27 26 25 23 16 2 348 337 327 318 309 298 288 282
300 280 275 260 248 258 268 68 42 286 63 51 251 231 266 239 188 235 241 223 225 229 222 248 251 216 28 15 93 112 114 105 102 104 100 89 71 64 50 38 32 27 22 5 346 345 347 341 338 344 355 3 10 12 13 16 19 21 21 20 21 22 21 21 22 23 25 25 24 23 23 24 25 25 25 25 22 16 9 359 348 334 319 307 298 288
189 220 266 260 255 271 269 122 81 18 75 250 251 227 244 251 238 246 256 276 256 231 221 244 246 194 124 141 113 115 114 105 101 110 117 125 119 93 73 48 35 16 7 359 347 342 338 344 356 1 4 7 8 9 9 11 11 11 13 15 15 16 17 19 20 20 19 17 16 17 17 18 20 21 22 23 21 19 17 14 8 356 337 318 306 297
253 258 289 284 268 264 252 211 143 80 107 273 277 278 294 283 279 277 265 268 251 224 225 247 256 213 138 158 140 126 125 118 109 106 116 126 128 127 113 77 41 6 2 356 352 353 354 0 4 3 4 5 4 4 4 4 5 5 5 7 9 9 10 13 15 15 15 11 10 11 13 13 14 16 16 16 15 15 16 16 14 10 1 343 322 308
272 267 241 275 269 258 267 271 260 91 38 327 314 337 351 355 323 304 274 258 252 215 221 249 267 295 125 163 177 158 142 137 131 122 110 100 95 63 47 32 3 358 350 344 347 349 349 351 350 353 355 354 354 356 355 356 357 357 356 358 1 2 2 5 7 9 9 8 7 7 8 8 9 9 9 8 8 8 9 10 10 11 10 3 349 330
238 247 225 248 265 271 284 290 290 76 308 283 292 304 304 298 301 304 274 263 292 309 272 264 278 293 279 232 236 208 142 142 154 155 156 154 158 214 296 302 308 308 302 313 320 316 322 327 330 337 337 336 340 340 342 346 345 345 346 345 348 353 355 357 358 0 2 2 1 0 1 2 3 2 2 2 2 1 2 3 3 4 6 5 1 352
225 258 239 241 254 262 273 279 276 66 257 256 268 277 278 275 268 262 256 265 306 308 277 271 280 281 275 273 278 283 115 130 145 155 169 182 197 214 232 250 257 263 271 280 287 292 300 304 306 315 319 323 328 329 332 335 336 340 341 339 340 344 348 349 349 349 351 352 351 350 352 354 355 355 355 355 357 357 357 358 357 357 358 358 359 356
235 264 254 252 262 264 272 275 259 261 266 259 259 264 273 276 269 263 262 269 279 273 270 286 287 277 276 281 288 327 80 101 103 123 175 200 219 227 240 252 255 263 274 276 282 292 296 297 304 312 316 320 322 326 329 328 331 335 335 336 338 338 340 342 341 339 337 339 339 339 341 345 347 349 350 350 350 350 351 351 352 352 351 351 351 351
227 253 243 257 271 269 272 274 271 276 276 270 265 263 267 270 268 269 269 266 263 261 265 274 272 268 274 285 340 89 95 103 86 237 231 230 237 237 242 254 260 269 282 285 287 290 290 294 302 305 310 316 319 323 325 323 325 328 328 331 332 332 336 337 336 333 330 331 332 332 333 335 336 339 342 343 343 342 343 344 345 345 345 345 345 344
266 250 140 233 279 271 271 276 280 284 278 274 273 266 261 262 264 266 266 262 259 258 257 258 259 262 270 71 91 111 138 167 257 259 251 242 244 245 248 254 257 261 270 278 279 279 278 280 284 290 298 305 310 316 316 317 320 321 322 325 325 326 328 329 330 328 324 324 326 327 326 325 325 328 331 333 335 335 336 336 336 336 337 337 337 338
285 277 14 321 281 268 273 282 288 294 284 271 266 260 255 254 254 253 252 252 253 255 254 253 256 259 166 100 85 162 181 252 280 280 281 270 254 250 257 265 264 260 264 270 274 276 275 275 278 280 283 286 291 297 301 306 311 313 315 319 320 320 321 321 322 322 320 320 321 322 320 316 316 319 320 323 326 327 329 329 329 329 328 328 330 330
247 263 291 287 276 271 275 282 306 319 288 266 253 251 250 249 251 251 247 248 251 254 260 262 265 254 126 131 94 146 204 276 297 299 297 296 285 269 265 270 271 268 266 266 270 273 272 272 273 270 271 273 273 277 285 292 294 294 298 302 304 307 309 310 313 314 315 316 317 318 315 311 311 312 313 315 318 321 323 322 322 322 322 323 325 325
226 240 254 256 261 271 280 318 350 272 264 264 265 243 256 261 263 260 255 253 252 252 280 279 124 118 136 141 77 344 312 304 302 297 294 293 290 283 277 275 274 271 266 263 266 271 270 269 269 266 266 267 267 269 274 276 274 274 275 276 278 283 289 295 301 304 306 307 310 311 311 310 310 310 310 311 313 316 317 316 315 315 314 315 317 318
236 239 245 246 253 270 330 14 272 256 252 296 359 67 310 296 281 270 267 263 252 172 129 142 143 151 160 157 315 310 305 300 293 289 289 285 283 288 289 288 286 281 274 267 264 264 262 264 266 267 265 265 265 265 264 265 267 268 269 268 269 274 281 287 292 295 297 299 301 303 305 306 306 306 307 308 310 311 309 308 307 307 307 305 304 307
238 241 238 224 231 258 260 233 248 267 337 311 280 219 129 248 256 263 271 264 223 185 194 186 167 166 172 210 301 301 300 303 296 282 277 277 277 282 286 291 295 292 285 278 272 266 265 268 268 268 269 271 270 265 263 269 275 277 278 280 281 285 288 288 286 286 288 291 293 296 298 299 299 300 302 304 306 306 305 303 302 301 301 299 297 297
227 231 227 228 226 227 235 236 250 304 319 291 273 231 133 215 258 279 293 280 183 181 197 181 170 178 221 313 317 319 323 312 298 282 273 267 264 272 280 286 291 293 291 287 280 272 270 272 275 279 285 288 285 280 281 292 298 296 291 291 293 294 295 290 283 280 281 281 282 284 286 287 289 291 294 297 300 302 302 302 300 299 299 298 296 294
222 224 217 233 241 216 229 251 260 275 281 272 229 244 229 296 326 328 301 294 170 173 181 146 151 219 311 316 310 314 326 290 287 286 290 285 266 262 276 283 286 289 291 289 284 280 282 289 299 307 308 305 301 302 311 317 315 309 299 295 296 295 292 287 283 282 281 279 279 279 276 277 280 283 286 289 291 294 297 298 297 297 297 295 292 290
213 226 220 230 247 232 231 246 246 252 267 107 150 202 178 163 166 215 290 307 105 169 188 132 165 265 271 278 285 283 268 280 282 288 305 305 289 268 278 287 290 292 294 295 297 303 313 320 323 322 319 314 311 315 320 321 318 311 301 297 297 292 286 285 284 283 283 283 284 280 275 277 279 280 280 283 285 287 290 291 291 292 293 292 290 288
177 216 216 219 234 236 237 245 248 257 278 157 199 216 159 125 117 263 280 288 142 197 210 171 218 253 250 256 265 251 247 274 286 296 306 307 302 296 295 295 297 302 307 312 319 330 333 328 324 322 319 315 313 315 319 320 317 309 301 300 299 293 291 291 291 289 289 289 287 282 280 281 280 279 278 280 282 283 284 284 284 285 287 289 288 286
163 212 223 220 230 235 238 246 254 261 257 213 223 209 136 115 119 263 267 214 152 210 212 186 223 251 258 257 253 241 251 269 281 290 299 303 303 303 305 309 315 319 321 322 325 333 331 322 319 317 312 311 312 316 321 324 318 310 307 306 302 299 301 302 301 299 297 294 290 286 284 284 282 280 280 280 281 282 281 280 279 281 284 286 286 285
168 186 238 224 226 237 242 250 260 269 243 222 237 135 130 181 256 258 240 131 182 220 213 205 226 243 251 252 253 261 270 275 279 284 291 297 300 304 311 325 330 323 321 322 322 329 328 319 315 313 310 313 317 321 327 328 321 315 313 310 306 307 310 308 305 304 301 297 294 290 287 285 283 282 282 282 282 282 280 280 280 281 283 283 282 283
180 180 230 215 198 226 246 243 252 268 230 194 197 126 164 207 244 303 269 229 232 238 233 229 235 238 240 251 263 270 274 278 279 284 291 294 299 306 313 323 324 317 318 321 322 329 331 323 317 315 313 315 319 324 329 328 321 316 313 310 310 312 312 309 308 307 304 300 296 292 289 287 286 285 284 283 283 282 281 282 282 282 282 281 279 279
195 198 235 233 183 191 229 225 218 248 236 181 179 197 219 220 238 316 298 290 284 280 278 273 274 264 238 257 269 273 276 279 281 290 297 296 299 308 312 316 317 315 317 319 321 330 335 328 322 318 314 314 319 325 327 325 319 314 310 310 313 315 313 312 313 311 307 303 299 295 292 291 289 287 285 285 285 282 280 280 280 281 280 277 275 275
208 206 231 252 210 201 246 252 199 202 243 202 197 233 259 267 273 276 279 282 285 293 310 298 290 288 191 250 265 267 270 278 289 298 298 296 301 308 310 310 311 313 317 320 323 332 335 327 321 317 313 312 319 325 324 324 322 315 310 312 314 314 312 311 309 306 303 301 298 295 294 293 291 289 287 287 286 282 280 280 279 278 277 274 272 271
232 216 211 271 246 241 261 259 234 242 259 253 244 247 252 262 271 274 270 271 275 293 17 277 270 247 152 230 263 269 273 285 297 296 293 295 299 304 305 306 310 316 321 324 326 330 331 325 319 316 313 312 318 324 322 321 320 313 309 310 310 308 307 306 304 301 298 297 295 293 293 292 290 288 286 285 282 278 276 276 274 274 274 272 268 266
242 205 180 234 246 250 260 254 238 243 255 259 261 263 253 246 251 259 270 276 281 113 133 141 172 193 171 222 268 275 281 292 294 291 294 296 297 302 308 309 314 320 322 324 326 328 331 327 320 318 315 313 317 321 318 315 313 308 306 307 306 305 305 303 302 300 297 296 295 295 294 291 288 288 286 283 279 275 272 270 268 268 268 267 265 265
220 175 188 229 239 240 255 262 260 256 256 256 259 264 263 253 238 163 137 218 112 115 126 120 133 201 232 272 283 286 290 296 293 292 297 300 300 306 312 312 316 319 320 323 326 328 329 325 317 314 313 310 312 313 310 307 306 305 305 305 304 305 304 302 300 298 296 296 296 296 295 292 289 288 287 284 279 276 273 270 268 266 264 262 262 263
168 159 181 212 233 241 253 262 264 264 264 257 247 245 252 257 222 141 127 128 123 125 133 132 153 235 285 294 300 302 297 295 297 298 299 303 307 309 311 313 316 318 319 320 322 322 322 318 312 310 307 304 305 306 305 303 302 303 304 304 305 305 303 300 299 298 296 296 296 295 295 293 291 289 288 286 284 280 275 271 269 269 268 266 262 261
183 219 207 194 237 248 247 246 246 253 266 265 252 232 214 146 146 153 150 145 145 148 151 167 208 230 278 300 316 316 300 295 302 304 300 300 304 307 311 316 316 315 316 316 315 314 314 312 309 306 302 301 303 305 304 302 300 301 302 303 304 303 300 298 298 297 296 295 294 294 294 293 291 290 288 286 286 284 280 276 271 268 268 268 266 263
208 228 218 213 237 246 247 245 233 226 256 270 262 132 125 122 147 161 161 159 149 128 110 137 277 274 277 294 310 309 300 299 307 308 302 299 304 308 312 316 316 313 312 312 312 311 310 308 307 305 303 303 305 304 302 300 300 302 304 304 303 301 298 297 297 295 295 294 293 292 292 291 289 289 287 285 284 283 282 282 278 271 267 267 268 268